Location: Newark
(15.4608°S, 41.1635°W)
Time: 14:49:08
(UTC+00:00)

Envisat - Pass Details

Date: 27 June 2021
Orbit: 764 x 766 km, 98.1° (Epoch: 25 July)

Event Time Altitude Azimuth Distance (km) Brightness Sun altitude
Rises 06:43:12 0° 41° (NE) 3,214 7.0 -34.3°
Reaches altitude 10° 06:45:57 10° 56° (NE) 2,294 6.2 -33.7°
Maximum altitude 06:49:49 22° 106° (ESE) 1,615 5.1 -32.8°
Enters shadow 06:52:40 14° 147° (SSE) 2,024 5.3 -32.1°
